Rotterdam, Netherlands

6:22 PM CEST on May 22, 2017 (GMT +0200)
Rotterdam

Weather History for EHRD - August, 2013

Change the Weather History Date:

Tuesday, August 20, 2013

  Actual Average Record
Temperature  
Mean Temperature 62 °F -  
Max Temperature 72 °F 66 °F 86 °F (1996)
Min Temperature 52 °F 52 °F 47 °F (2014)
Degree Days  
Heating Degree Days 3    
Growing Degree Days 12 (Base 50)    
Moisture  
Dew Point 55 °F    
Average Humidity 77    
Maximum Humidity 100    
Minimum Humidity 41    
Precipitation  
Precipitation 0.00 in - - ()
Sea Level Pressure  
Sea Level Pressure 30.33 in    
Wind  
Wind Speed 2 mph ()    
Max Wind Speed 7 mph    
Max Gust Speed -    
Visibility 7.0 miles    
Events      
Averages and records for this station are not official NWS values.
T = Trace of Precipitation, MM = Missing Value Source: Averaged Metar Reports

Daily Weather History Graph

Daily Weather History Graph

Search for Another Location

Airport or City:

Trip Planner

Search our weather history database for the weather conditions in past years. The results will help you decide how hot, cold, wet, or windy it might be!

Date:

Astronomy

Aug. 20, 2013 Rise Set
Actual Time 6:34 AM CEST 8:55 PM CEST
Civil Twilight 5:57 AM CEST 9:32 PM CEST
Nautical Twilight 5:10 AM CEST 10:18 PM CEST
Astronomical Twilight 4:15 AM CEST 11:13 PM CEST
Moon 8:10 PM CEST (8/20) 5:47 AM CEST (8/20)
Length of Visible Light 15h 34m
Length of Day
14h 20m
Waxing Gibbous, 99% of the Moon is Illuminated
Aug 20
Waxing Gibbous
Aug 21
Full
Aug 28
Last Quarter
Sep 5
New
Sep 12
First Quarter

Hourly Weather History & Observations

Time (CEST) Temp. Dew Point Humidity Pressure Visibility Wind Dir Wind Speed Gust Speed Precip Events Conditions
12:25 AM 57.2 °F 55.4 °F 94% 30.27 in 6.2 mi WSW 2.3 mph - N/A   Unknown
12:55 AM 55.4 °F 55.4 °F 100% 30.27 in 6.2 mi Calm Calm - N/A   Unknown
1:25 AM 55.4 °F 53.6 °F 94% 30.30 in 6.2 mi Calm Calm - N/A   Unknown
1:55 AM 53.6 °F 53.6 °F 100% 30.30 in 3.7 mi Variable 1.2 mph - N/A   Mist
2:00 AM 54 °F 54 °F 98% 30.31 in 3 mi SW 2.2 mph - -   Mist
2:25 AM 55.4 °F 55.4 °F 100% 30.30 in 6.2 mi SSW 1.2 mph - N/A   Unknown
2:55 AM 55.4 °F 55.4 °F 100% 30.30 in 6.2 mi SW 2.3 mph - N/A   Unknown
3:25 AM 57.2 °F 55.4 °F 94% 30.30 in 6.2 mi Variable 1.2 mph - N/A   Unknown
3:55 AM 57.2 °F 55.4 °F 94% 30.30 in 6.2 mi SSW 1.2 mph - N/A   Unknown
4:25 AM 57.2 °F 57.2 °F 100% 30.30 in 6.2 mi Calm Calm - N/A   Unknown
4:55 AM 57.2 °F 57.2 °F 100% 30.30 in 6.2 mi East 1.2 mph - N/A   Unknown
5:00 AM 58 °F 56 °F 92% 30.33 in 13 mi Calm Calm - -   Overcast
5:25 AM 57.2 °F 57.2 °F 100% 30.30 in 6.2 mi SSE 2.3 mph - N/A   Unknown
5:55 AM 59.0 °F 57.2 °F 94% 30.30 in 6.2 mi South 1.2 mph - N/A   Unknown
6:25 AM 59.0 °F 57.2 °F 94% 30.33 in 6.2 mi Variable 1.2 mph - N/A   Unknown
6:55 AM 59.0 °F 57.2 °F 94% 30.33 in 6.2 mi Variable 1.2 mph - N/A   Unknown
7:25 AM 59.0 °F 57.2 °F 94% 30.33 in 6.2 mi Variable 2.3 mph - N/A   Unknown
7:55 AM 60.8 °F 57.2 °F 88% 30.33 in 6.2 mi SSE 3.5 mph - N/A   Unknown
8:00 AM 61 °F 58 °F 87% 30.35 in 16 mi South 2.2 mph - -   Partly Cloudy
8:25 AM 62.6 °F 59.0 °F 88% 30.33 in 6.2 mi SE 3.5 mph - N/A   Unknown
8:55 AM 62.6 °F 57.2 °F 82% 30.33 in 6.2 mi SSE 3.5 mph - N/A   Unknown
9:25 AM 64.4 °F 57.2 °F 77% 30.33 in 6.2 mi SSE 4.6 mph - N/A   Unknown
9:55 AM 64.4 °F 57.2 °F 77% 30.36 in 6.2 mi SSE 5.8 mph - N/A   Unknown
10:25 AM 64.4 °F 57.2 °F 77% 30.36 in 6.2 mi SSE 6.9 mph - N/A   Unknown
10:55 AM 66.2 °F 57.2 °F 73% 30.36 in 6.2 mi South 4.6 mph - N/A   Unknown
11:00 AM 66 °F 57 °F 66% 30.38 in 12 mi South 4.5 mph - -   Overcast
11:25 AM 66.2 °F 55.4 °F 68% 30.36 in 6.2 mi South 3.5 mph - N/A   Unknown
11:55 AM 66.2 °F 53.6 °F 64% 30.36 in 6.2 mi SE 4.6 mph - N/A   Unknown
12:25 PM 68.0 °F 53.6 °F 60% 30.36 in 6.2 mi SSW 4.6 mph - N/A   Unknown
12:55 PM 68.0 °F 53.6 °F 60% 30.36 in 6.2 mi SSW 5.8 mph - N/A   Scattered Clouds
1:25 PM 66.2 °F 53.6 °F 64% 30.36 in 6.2 mi SW 5.8 mph - N/A   Mostly Cloudy
1:55 PM 68.0 °F 53.6 °F 60% 30.36 in 6.2 mi WSW 3.5 mph - N/A   Unknown
2:00 PM 67 °F 53 °F 52% 30.38 in 12 mi West 2.2 mph - -   Partly Cloudy
2:25 PM 68.0 °F 55.4 °F 64% 30.36 in 6.2 mi WNW 3.5 mph - N/A   Unknown
2:55 PM 69.8 °F 55.4 °F 60% 30.36 in 6.2 mi NNW 3.5 mph - N/A   Unknown
3:25 PM 69.8 °F 53.6 °F 56% 30.36 in 6.2 mi Variable 1.2 mph - N/A   Unknown
3:55 PM 69.8 °F 53.6 °F 56% 30.36 in 6.2 mi NNW 3.5 mph - N/A   Unknown
4:25 PM 69.8 °F 53.6 °F 56% 30.36 in 6.2 mi Variable 2.3 mph - N/A   Unknown
4:55 PM 71.6 °F 53.6 °F 53% 30.36 in 6.2 mi West 3.5 mph - N/A   Unknown
5:00 PM 71 °F 53 °F 41% 30.36 in 17 mi WNW 4.5 mph - -   Scattered Clouds
5:25 PM 71.6 °F 55.4 °F 57% 30.33 in 6.2 mi Variable 4.6 mph - N/A   Mostly Cloudy
5:55 PM 69.8 °F 55.4 °F 60% 30.33 in 6.2 mi NNE 3.5 mph - N/A   Unknown
6:25 PM 69.8 °F 53.6 °F 56% 30.33 in 6.2 mi North 3.5 mph - N/A   Partly Cloudy
6:55 PM 69.8 °F 51.8 °F 53% 30.33 in 6.2 mi NNE 3.5 mph - N/A   Partly Cloudy
7:25 PM 69.8 °F 55.4 °F 60% 30.33 in 6.2 mi NNE 3.5 mph - N/A   Mostly Cloudy
7:55 PM 68.0 °F 55.4 °F 64% 30.33 in 6.2 mi East 3.5 mph - N/A   Unknown
8:00 PM 67 °F 55 °F 57% 30.35 in 16 mi East 2.2 mph - -   Partly Cloudy
8:25 PM 64.4 °F 55.4 °F 73% 30.33 in 6.2 mi ENE 3.5 mph - N/A   Partly Cloudy
8:55 PM 64.4 °F 53.6 °F 68% 30.33 in 6.2 mi North 4.6 mph - N/A   Unknown
9:25 PM 64.4 °F 53.6 °F 68% 30.33 in 6.2 mi Variable 1.2 mph - N/A   Unknown
9:55 PM 60.8 °F 53.6 °F 77% 30.33 in 6.2 mi Variable 2.3 mph - N/A   Unknown
10:25 PM 59.0 °F 53.6 °F 82% 30.33 in 6.2 mi Variable 2.3 mph - N/A   Unknown
10:55 PM 60.8 °F 55.4 °F 82% 30.33 in 6.2 mi Variable 2.3 mph - N/A   Unknown
11:00 PM 56 °F 53 °F 84% 30.35 in 10 mi North 2.2 mph - -  
11:25 PM 55.4 °F 53.6 °F 94% 30.33 in 6.2 mi ENE 2.3 mph - N/A   Unknown
11:55 PM 57.2 °F 55.4 °F 94% 30.33 in 6.2 mi ENE 2.3 mph - N/A   Unknown